Regional Weather Roundup
Issued by NWS

Home | Current Version | Previous Version | Text Only | Print | Product List | Glossary Off
Versions: 1 2 3 4 5 6 7 8 9 10 11 12 13 14 15 16 17 18 19 20 21 22 23 24 25 26 27 28 29 30 31 32 33 34 35 36 37 38 39 40 41 42 43 44 45 46 47 48 49 50

000
ASUS43 KLMK 071502
RWRKY
KENTUCKY REGIONAL WEATHER ROUNDUP
NATIONAL WEATHER SERVICE LOUISVILLE KY
1100 AM EDT TUE JUL 07 2015

NOTE "FAIR" INDICATES FEW OR NO CLOUDS BELOW 12,000 FEET
WITH NO SIGNIFICANT WEATHER AND/OR OBSTRUCTIONS TO VISIBILITY.

KYZ001>023-026-027-061>063-070>075-071600-
WESTERN AND SOUTH CENTRAL KENTUCKY

CITY           SKY/WX    TMP DP  RH WIND       PRES   REMARKS
PADUCAH        CLOUDY    80  74  81 SW7       29.98S
HENDERSON      CLOUDY    79  72  78 SW14G21   29.96R
OWENSBORO      CLOUDY    76  74  93 SW14      29.98F
HOPKINSVILLE   CLOUDY    80  74  83 SW13      30.03S
BOWLING GREEN  CLOUDY    80  72  76 S8        30.05F
GLASGOW        NOT AVBL
$$

KYZ024-025-028>034-038-045-046-053-071600-
NORTH CENTRAL KENTUCKY

CITY           SKY/WX    TMP DP  RH WIND       PRES   REMARKS
LOUISVILLE/SDF CLOUDY    79  70  74 SW14      30.00S
LOUISVILLE/LOU CLOUDY    79  70  74 SW13G23   30.00F
FORT KNOX      LGT RAIN  72  70  92 S8        30.01S FOG
$$

KYZ035>037-039>044-047>052-055>060-089>105-071600-
NORTHEAST KENTUCKY

CITY           SKY/WX    TMP DP  RH WIND       PRES   REMARKS
LEXINGTON      PTSUNNY   79  71  76 SW14G23   30.05F
COVINGTON      LGT RAIN  77  72  84 SW8       30.00S
FRANKFORT      CLOUDY    78  70  76 SW13      30.02F
$$

KYZ054-064>069-076>088-106>120-071600-
SOUTHEAST KENTUCKY

CITY           SKY/WX    TMP DP  RH WIND       PRES   REMARKS
JACKSON        PTSUNNY   79  71  76 VRB3      30.12S
LONDON         CLOUDY    79  68  69 SW9       30.12S
SOMERSET       NOT AVBL
MIDDLESBORO    PTSUNNY   78  70  77 S12       30.15S
MONTICELLO     MOSUNNY   82  73  74 SW13      30.13S
$$



USA.gov is the U.S. government's official web portal to all federal, state and local government web resources and services.